Time,TemperatureF,DewpointF,PressureIn,WindDirection,WindDirectionDegrees,WindSpeedMPH,WindSpeedGustMPH,Humidity,HourlyPrecipIn,Conditions,Clouds,dailyrainin,SoftwareType,DateUTC
2013-03-25 00:04:00,52.7,43.5,29.90,SW,225,0.0,1.0,71,0.00,,,0.00,meteohub,2013-03-25 07:04:00,
2013-03-25 00:09:00,52.5,43.3,29.90,South,180,0.0,1.0,71,0.00,,,0.00,meteohub,2013-03-25 07:09:00,
2013-03-25 00:14:00,52.3,43.2,29.90,South,180,0.0,1.0,71,0.00,,,0.00,meteohub,2013-03-25 07:14:00,
2013-03-25 00:19:00,52.0,43.2,29.91,South,180,1.0,0.0,72,0.00,,,0.00,meteohub,2013-03-25 07:19:00,
2013-03-25 00:25:00,51.8,43.0,29.91,South,180,0.0,1.0,72,0.00,,,0.00,meteohub,2013-03-25 07:25:00,
2013-03-25 00:30:00,51.6,43.0,29.90,South,180,0.0,1.0,72,0.00,,,0.00,meteohub,2013-03-25 07:30:00,
2013-03-25 00:35:00,51.4,42.8,29.91,South,180,1.0,1.0,72,0.00,,,0.00,meteohub,2013-03-25 07:35:00,
2013-03-25 00:40:00,51.4,42.8,29.91,South,180,0.0,1.0,72,0.00,,,0.00,meteohub,2013-03-25 07:40:00,
2013-03-25 00:46:00,51.3,43.0,29.90,South,180,0.0,1.0,73,0.00,,,0.00,meteohub,2013-03-25 07:46:00,
2013-03-25 00:51:00,51.1,42.8,29.91,South,180,0.0,1.0,73,0.00,,,0.00,meteohub,2013-03-25 07:51:00,
2013-03-25 00:56:00,50.9,43.0,29.91,South,180,0.0,0.0,74,0.00,,,0.00,meteohub,2013-03-25 07:56:00,
2013-03-25 01:02:00,50.9,43.0,29.90,South,180,0.0,0.0,74,0.00,,,0.00,meteohub,2013-03-25 08:02:00,
2013-03-25 01:07:00,50.9,43.0,29.90,South,180,0.0,0.0,74,0.00,,,0.00,meteohub,2013-03-25 08:07:00,
2013-03-25 01:12:00,50.7,43.5,29.90,South,180,2.0,0.0,76,0.00,,,0.00,meteohub,2013-03-25 08:12:00,
2013-03-25 01:17:00,50.7,43.5,29.90,South,180,0.0,2.0,76,0.00,,,0.00,meteohub,2013-03-25 08:17:00,
2013-03-25 01:22:00,50.5,43.3,29.90,South,180,0.0,2.0,76,0.00,,,0.00,meteohub,2013-03-25 08:22:00,
2013-03-25 01:27:00,50.5,43.5,29.91,South,180,0.0,2.0,77,0.00,,,0.00,meteohub,2013-03-25 08:27:00,
2013-03-25 01:32:00,50.4,43.3,29.91,South,180,0.0,0.0,77,0.00,,,0.00,meteohub,2013-03-25 08:32:00,
2013-03-25 01:38:00,50.2,43.3,29.90,South,180,0.0,0.0,77,0.00,,,0.00,meteohub,2013-03-25 08:38:00,
2013-03-25 01:43:00,50.2,43.3,29.90,South,180,0.0,0.0,77,0.00,,,0.00,meteohub,2013-03-25 08:43:00,
2013-03-25 01:48:00,50.0,43.3,29.90,South,180,0.0,0.0,78,0.00,,,0.00,meteohub,2013-03-25 08:48:00,
2013-03-25 01:53:00,49.8,43.2,29.90,South,180,0.0,0.0,78,0.00,,,0.00,meteohub,2013-03-25 08:53:00,
2013-03-25 01:58:00,49.6,43.0,29.90,South,180,0.0,0.0,78,0.00,,,0.00,meteohub,2013-03-25 08:58:00,
2013-03-25 02:03:00,49.6,43.0,29.90,South,180,0.0,0.0,78,0.00,,,0.00,meteohub,2013-03-25 09:03:00,
2013-03-25 02:09:00,49.3,42.8,29.90,South,180,0.0,0.0,78,0.00,,,0.00,meteohub,2013-03-25 09:09:00,
2013-03-25 02:14:00,49.1,42.6,29.90,South,180,0.0,0.0,78,0.00,,,0.00,meteohub,2013-03-25 09:14:00,
2013-03-25 02:19:00,48.9,42.6,29.90,South,180,0.0,0.0,79,0.00,,,0.00,meteohub,2013-03-25 09:19:00,
2013-03-25 02:24:00,48.7,42.4,29.90,South,180,0.0,0.0,79,0.00,,,0.00,meteohub,2013-03-25 09:24:00,
2013-03-25 02:29:00,48.7,42.4,29.90,South,180,0.0,0.0,79,0.00,,,0.00,meteohub,2013-03-25 09:29:00,
2013-03-25 02:35:00,48.7,42.4,29.90,South,180,0.0,0.0,79,0.00,,,0.00,meteohub,2013-03-25 09:35:00,
2013-03-25 02:40:00,48.6,42.3,29.90,SW,225,0.0,0.0,79,0.00,,,0.00,meteohub,2013-03-25 09:40:00,
2013-03-25 02:45:00,48.6,42.6,29.90,SW,225,0.0,0.0,80,0.00,,,0.00,meteohub,2013-03-25 09:45:00,
2013-03-25 02:50:00,48.4,42.4,29.90,South,180,0.0,0.0,80,0.00,,,0.00,meteohub,2013-03-25 09:50:00,
2013-03-25 02:55:00,48.2,42.3,29.90,South,180,0.0,0.0,80,0.00,,,0.00,meteohub,2013-03-25 09:55:00,
2013-03-25 03:00:00,48.2,42.3,29.90,South,180,0.0,0.0,80,0.00,,,0.00,meteohub,2013-03-25 10:00:00,
2013-03-25 03:06:00,48.2,42.3,29.90,South,180,0.0,0.0,80,0.00,,,0.00,meteohub,2013-03-25 10:06:00,
2013-03-25 03:11:00,47.8,42.3,29.90,South,180,0.0,0.0,81,0.00,,,0.00,meteohub,2013-03-25 10:11:00,
2013-03-25 03:16:00,47.8,42.3,29.90,South,180,0.0,0.0,81,0.00,,,0.00,meteohub,2013-03-25 10:16:00,
2013-03-25 03:21:00,47.7,42.4,29.90,South,180,0.0,0.0,82,0.00,,,0.00,meteohub,2013-03-25 10:21:00,
2013-03-25 03:26:00,47.7,42.4,29.90,South,180,0.0,0.0,82,0.00,,,0.00,meteohub,2013-03-25 10:26:00,
2013-03-25 03:32:00,47.5,42.6,29.89,South,180,0.0,0.0,83,0.00,,,0.00,meteohub,2013-03-25 10:32:00,
2013-03-25 03:37:00,47.5,42.6,29.89,South,180,0.0,0.0,83,0.00,,,0.00,meteohub,2013-03-25 10:37:00,
2013-03-25 03:42:00,47.5,42.6,29.89,South,180,0.0,0.0,83,0.00,,,0.00,meteohub,2013-03-25 10:42:00,
2013-03-25 03:47:00,47.5,42.8,29.89,South,180,0.0,0.0,84,0.00,,,0.00,meteohub,2013-03-25 10:47:00,
2013-03-25 03:52:00,47.5,42.8,29.90,South,180,0.0,0.0,84,0.00,,,0.00,meteohub,2013-03-25 10:52:00,
2013-03-25 03:57:00,47.5,42.8,29.90,South,180,0.0,0.0,84,0.00,,,0.00,meteohub,2013-03-25 10:57:00,
2013-03-25 04:02:00,47.5,42.8,29.89,South,180,0.0,0.0,84,0.00,,,0.00,meteohub,2013-03-25 11:02:00,
2013-03-25 04:07:00,47.3,42.8,29.89,South,180,0.0,0.0,84,0.00,,,0.00,meteohub,2013-03-25 11:07:00,
2013-03-25 04:13:00,47.1,42.6,29.89,South,180,0.0,0.0,84,0.00,,,0.00,meteohub,2013-03-25 11:13:00,
2013-03-25 04:18:00,46.9,42.4,29.89,SW,225,0.0,0.0,84,0.00,,,0.00,meteohub,2013-03-25 11:18:00,
2013-03-25 04:23:00,46.8,42.3,29.90,SW,225,0.0,0.0,84,0.00,,,0.00,meteohub,2013-03-25 11:23:00,
2013-03-25 04:28:00,46.8,42.3,29.89,SW,225,0.0,0.0,84,0.00,,,0.00,meteohub,2013-03-25 11:28:00,
2013-03-25 04:33:00,46.4,42.1,29.89,South,180,0.0,0.0,85,0.00,,,0.00,meteohub,2013-03-25 11:33:00,
2013-03-25 04:38:00,46.2,41.9,29.89,South,180,0.0,0.0,85,0.00,,,0.00,meteohub,2013-03-25 11:38:00,
2013-03-25 04:44:00,46.2,41.9,29.90,South,180,0.0,0.0,85,0.00,,,0.00,meteohub,2013-03-25 11:44:00,
2013-03-25 04:49:00,46.2,42.3,29.89,South,180,0.0,0.0,86,0.00,,,0.00,meteohub,2013-03-25 11:49:00,
2013-03-25 04:54:00,46.0,42.1,29.90,South,180,0.0,0.0,86,0.00,,,0.00,meteohub,2013-03-25 11:54:00,
2013-03-25 05:00:00,46.0,42.1,29.90,South,180,0.0,0.0,86,0.00,,,0.00,meteohub,2013-03-25 12:00:00,
2013-03-25 05:05:00,46.0,42.1,29.90,South,180,0.0,0.0,86,0.00,,,0.00,meteohub,2013-03-25 12:05:00,
2013-03-25 05:10:00,45.9,41.9,29.89,South,180,0.0,0.0,86,0.00,,,0.00,meteohub,2013-03-25 12:10:00,
2013-03-25 05:15:00,45.9,42.3,29.90,SW,225,0.0,0.0,87,0.00,,,0.00,meteohub,2013-03-25 12:15:00,
2013-03-25 05:20:00,45.9,42.3,29.90,SW,225,0.0,0.0,87,0.00,,,0.00,meteohub,2013-03-25 12:20:00,
2013-03-25 05:25:00,45.7,42.1,29.89,SW,225,0.0,0.0,87,0.00,,,0.00,meteohub,2013-03-25 12:25:00,
2013-03-25 05:31:00,45.7,42.1,29.90,SW,225,0.0,0.0,87,0.00,,,0.00,meteohub,2013-03-25 12:31:00,
2013-03-25 05:36:00,45.5,41.9,29.90,SW,225,0.0,0.0,87,0.00,,,0.00,meteohub,2013-03-25 12:36:00,
2013-03-25 05:42:00,45.3,41.7,29.90,SW,225,0.0,0.0,87,0.00,,,0.00,meteohub,2013-03-25 12:42:00,
2013-03-25 05:47:00,45.3,41.7,29.91,SW,225,0.0,0.0,87,0.00,,,0.00,meteohub,2013-03-25 12:47:00,
2013-03-25 05:52:00,45.1,41.5,29.90,SW,225,0.0,0.0,87,0.00,,,0.00,meteohub,2013-03-25 12:52:00,
2013-03-25 05:57:00,45.1,41.5,29.90,SW,225,0.0,0.0,87,0.00,,,0.00,meteohub,2013-03-25 12:57:00,
2013-03-25 06:02:00,45.0,41.4,29.90,SW,225,0.0,0.0,87,0.00,,,0.00,meteohub,2013-03-25 13:02:00,
2013-03-25 06:07:00,44.8,41.4,29.90,SW,225,0.0,0.0,88,0.00,,,0.00,meteohub,2013-03-25 13:07:00,
2013-03-25 06:12:00,44.8,41.4,29.90,SW,225,0.0,0.0,88,0.00,,,0.00,meteohub,2013-03-25 13:12:00,
2013-03-25 06:17:00,44.8,41.4,29.90,SW,225,0.0,0.0,88,0.00,,,0.00,meteohub,2013-03-25 13:17:00,
2013-03-25 06:22:00,44.6,41.5,29.91,SW,225,0.0,0.0,89,0.00,,,0.00,meteohub,2013-03-25 13:22:00,
2013-03-25 06:27:00,44.6,41.5,29.91,SW,225,0.0,0.0,89,0.00,,,0.00,meteohub,2013-03-25 13:27:00,
2013-03-25 06:32:00,44.6,41.5,29.91,SW,225,0.0,0.0,89,0.00,,,0.00,meteohub,2013-03-25 13:32:00,
2013-03-25 06:37:00,44.4,41.4,29.91,SW,225,0.0,0.0,89,0.00,,,0.00,meteohub,2013-03-25 13:37:00,
2013-03-25 06:42:00,44.2,41.2,29.91,SW,225,0.0,0.0,89,0.00,,,0.00,meteohub,2013-03-25 13:42:00,
2013-03-25 06:47:00,44.1,41.0,29.91,SW,225,0.0,0.0,89,0.00,,,0.00,meteohub,2013-03-25 13:47:00,
2013-03-25 06:52:00,43.9,40.8,29.91,SW,225,0.0,0.0,89,0.00,,,0.00,meteohub,2013-03-25 13:52:00,
2013-03-25 06:57:00,43.9,40.8,29.91,SW,225,0.0,0.0,89,0.00,,,0.00,meteohub,2013-03-25 13:57:00,
2013-03-25 07:02:00,43.7,40.6,29.91,SW,225,0.0,0.0,89,0.00,,,0.00,meteohub,2013-03-25 14:02:00,
2013-03-25 07:07:00,43.3,40.3,29.92,SW,225,0.0,0.0,89,0.00,,,0.00,meteohub,2013-03-25 14:07:00,
2013-03-25 07:12:00,42.8,39.6,29.92,SW,225,0.0,0.0,88,0.00,,,0.00,meteohub,2013-03-25 14:12:00,
2013-03-25 07:18:00,42.6,39.4,29.92,SW,225,0.0,0.0,88,0.00,,,0.00,meteohub,2013-03-25 14:18:00,
2013-03-25 07:23:00,42.4,39.2,29.92,SW,225,0.0,0.0,88,0.00,,,0.00,meteohub,2013-03-25 14:23:00,
2013-03-25 07:28:00,42.3,39.0,29.92,SW,225,0.0,0.0,88,0.00,,,0.00,meteohub,2013-03-25 14:28:00,
2013-03-25 07:33:00,42.3,39.0,29.92,SW,225,0.0,0.0,88,0.00,,,0.00,meteohub,2013-03-25 14:33:00,
2013-03-25 07:38:00,42.4,39.2,29.92,SW,225,0.0,0.0,88,0.00,,,0.00,meteohub,2013-03-25 14:38:00,
2013-03-25 07:44:00,42.6,39.6,29.93,SW,225,0.0,0.0,89,0.00,,,0.00,meteohub,2013-03-25 14:44:00,
2013-03-25 07:49:00,43.0,39.9,29.93,SW,225,0.0,0.0,89,0.00,,,0.00,meteohub,2013-03-25 14:49:00,
2013-03-25 07:54:00,43.2,40.5,29.93,SW,225,0.0,0.0,90,0.00,,,0.00,meteohub,2013-03-25 14:54:00,
2013-03-25 07:59:00,43.5,40.8,29.93,SW,225,0.0,0.0,90,0.00,,,0.00,meteohub,2013-03-25 14:59:00,
2013-03-25 08:04:00,44.1,41.4,29.93,SW,225,0.0,0.0,90,0.00,,,0.00,meteohub,2013-03-25 15:04:00,
2013-03-25 08:09:00,44.8,42.1,29.93,SW,225,0.0,0.0,90,0.00,,,0.00,meteohub,2013-03-25 15:09:00,
2013-03-25 08:14:00,45.3,42.6,29.93,SW,225,0.0,0.0,90,0.00,,,0.00,meteohub,2013-03-25 15:14:00,
2013-03-25 08:20:00,46.2,43.5,29.93,South,180,0.0,0.0,90,0.00,,,0.00,meteohub,2013-03-25 15:20:00,
2013-03-25 08:25:00,46.8,43.7,29.93,South,180,0.0,0.0,89,0.00,,,0.00,meteohub,2013-03-25 15:25:00,
2013-03-25 08:30:00,47.7,44.6,29.93,SW,225,0.0,0.0,89,0.00,,,0.00,meteohub,2013-03-25 15:30:00,
2013-03-25 08:35:00,48.4,45.3,29.93,SW,225,0.0,0.0,89,0.00,,,0.00,meteohub,2013-03-25 15:35:00,
2013-03-25 08:40:00,48.7,45.3,29.94,SW,225,0.0,0.0,88,0.00,,,0.00,meteohub,2013-03-25 15:40:00,
2013-03-25 08:45:00,49.1,45.3,29.94,SW,225,0.0,0.0,87,0.00,,,0.00,meteohub,2013-03-25 15:45:00,
2013-03-25 08:51:00,49.5,45.7,29.94,SW,225,0.0,0.0,87,0.00,,,0.00,meteohub,2013-03-25 15:51:00,
2013-03-25 08:56:00,49.8,46.0,29.94,SW,225,0.0,0.0,87,0.00,,,0.00,meteohub,2013-03-25 15:56:00,
2013-03-25 09:01:00,50.4,46.4,29.94,SW,225,0.0,0.0,86,0.00,,,0.00,meteohub,2013-03-25 16:01:00,
2013-03-25 09:07:00,51.4,47.5,29.94,SW,225,0.0,0.0,86,0.00,,,0.00,meteohub,2013-03-25 16:07:00,
2013-03-25 09:12:00,51.8,47.5,29.94,SW,225,2.0,2.0,85,0.00,,,0.00,meteohub,2013-03-25 16:12:00,
2013-03-25 09:17:00,52.2,47.5,29.94,SW,225,2.0,2.0,84,0.00,,,0.00,meteohub,2013-03-25 16:17:00,
2013-03-25 09:22:00,52.7,47.7,29.94,NW,315,1.0,2.0,83,0.00,,,0.00,meteohub,2013-03-25 16:22:00,
2013-03-25 09:28:00,53.4,48.4,29.94,SW,225,1.0,2.0,83,0.00,,,0.00,meteohub,2013-03-25 16:28:00,
2013-03-25 09:33:00,54.0,48.6,29.94,West,270,1.0,2.0,82,0.00,,,0.00,meteohub,2013-03-25 16:33:00,
2013-03-25 09:38:00,54.7,48.9,29.94,West,270,2.0,2.0,81,0.00,,,0.00,meteohub,2013-03-25 16:38:00,
2013-03-25 09:43:00,55.6,49.5,29.94,West,270,2.0,2.0,80,0.00,,,0.00,meteohub,2013-03-25 16:43:00,
2013-03-25 09:49:00,56.5,50.0,29.94,West,270,2.0,2.0,79,0.00,,,0.00,meteohub,2013-03-25 16:49:00,
2013-03-25 09:54:00,57.0,49.8,29.94,West,270,2.0,2.0,77,0.00,,,0.00,meteohub,2013-03-25 16:54:00,
2013-03-25 09:59:00,57.7,50.2,29.94,SW,225,2.0,2.0,76,0.00,,,0.00,meteohub,2013-03-25 16:59:00,
2013-03-25 10:04:00,58.8,50.5,29.94,SW,225,1.0,3.0,74,0.00,,,0.00,meteohub,2013-03-25 17:04:00,
2013-03-25 10:09:00,59.5,50.9,29.94,SW,225,2.0,3.0,73,0.00,,,0.00,meteohub,2013-03-25 17:09:00,
2013-03-25 10:15:00,60.1,50.7,29.94,South,180,2.0,3.0,71,0.00,,,0.00,meteohub,2013-03-25 17:15:00,
2013-03-25 10:20:00,60.6,50.7,29.94,SW,225,3.0,3.0,70,0.00,,,0.00,meteohub,2013-03-25 17:20:00,
2013-03-25 10:25:00,61.0,51.1,29.94,SW,225,2.0,3.0,70,0.00,,,0.00,meteohub,2013-03-25 17:25:00,
2013-03-25 10:30:00,61.5,51.3,29.94,SW,225,2.0,3.0,69,0.00,,,0.00,meteohub,2013-03-25 17:30:00,
2013-03-25 10:35:00,61.9,51.3,29.94,South,180,2.0,2.0,68,0.00,,,0.00,meteohub,2013-03-25 17:35:00,
2013-03-25 10:41:00,62.6,51.4,29.94,South,180,2.0,2.0,67,0.00,,,0.00,meteohub,2013-03-25 17:41:00,
2013-03-25 10:46:00,63.1,51.3,29.94,West,270,2.0,3.0,65,0.00,,,0.00,meteohub,2013-03-25 17:46:00,
2013-03-25 10:51:00,63.9,51.8,29.95,NW,315,2.0,3.0,65,0.00,,,0.00,meteohub,2013-03-25 17:51:00,
2013-03-25 10:56:00,64.6,51.6,29.94,NW,315,2.0,3.0,63,0.00,,,0.00,meteohub,2013-03-25 17:56:00,
2013-03-25 11:02:00,64.9,52.0,29.94,South,180,2.0,3.0,63,0.00,,,0.00,meteohub,2013-03-25 18:02:00,
2013-03-25 11:07:00,65.5,52.2,29.94,West,270,2.0,3.0,62,0.00,,,0.00,meteohub,2013-03-25 18:07:00,
2013-03-25 11:12:00,66.2,51.4,29.94,West,270,3.0,3.0,59,0.00,,,0.00,meteohub,2013-03-25 18:12:00,
2013-03-25 11:17:00,66.2,51.4,29.94,South,180,3.0,3.0,59,0.00,,,0.00,meteohub,2013-03-25 18:17:00,
2013-03-25 11:23:00,67.1,51.8,29.94,East,90,3.0,3.0,58,0.00,,,0.00,meteohub,2013-03-25 18:23:00,
2013-03-25 11:28:00,67.3,51.1,29.93,SE,135,2.0,3.0,56,0.00,,,0.00,meteohub,2013-03-25 18:28:00,
2013-03-25 11:33:00,67.8,51.6,29.94,SE,135,2.0,3.0,56,0.00,,,0.00,meteohub,2013-03-25 18:33:00,
2013-03-25 11:38:00,68.4,51.6,29.94,SW,225,4.0,4.0,55,0.00,,,0.00,meteohub,2013-03-25 18:38:00,
2013-03-25 11:43:00,69.1,51.8,29.93,West,270,1.0,4.0,54,0.00,,,0.00,meteohub,2013-03-25 18:43:00,
2013-03-25 11:48:00,69.8,52.3,29.93,SW,225,2.0,4.0,54,0.00,,,0.00,meteohub,2013-03-25 18:48:00,
2013-03-25 11:54:00,70.5,52.0,29.93,South,180,2.0,4.0,52,0.00,,,0.00,meteohub,2013-03-25 18:54:00,
2013-03-25 11:59:00,70.9,51.3,29.93,South,180,2.0,3.0,50,0.00,,,0.00,meteohub,2013-03-25 18:59:00,
2013-03-25 12:04:00,70.5,50.9,29.93,South,180,2.0,3.0,50,0.00,,,0.00,meteohub,2013-03-25 19:04:00,
2013-03-25 12:09:00,70.5,50.9,29.94,SW,225,3.0,3.0,50,0.00,,,0.00,meteohub,2013-03-25 19:09:00,
2013-03-25 12:15:00,70.2,50.7,29.93,SW,225,4.0,4.0,50,0.00,,,0.00,meteohub,2013-03-25 19:15:00,
2013-03-25 12:20:00,69.8,50.4,29.93,West,270,2.0,4.0,50,0.00,,,0.00,meteohub,2013-03-25 19:20:00,
2013-03-25 12:25:00,69.8,50.9,29.93,South,180,2.0,4.0,51,0.00,,,0.00,meteohub,2013-03-25 19:25:00,
2013-03-25 12:30:00,70.2,50.7,29.93,South,180,3.0,4.0,50,0.00,,,0.00,meteohub,2013-03-25 19:30:00,
2013-03-25 12:36:00,70.9,51.8,29.92,SW,225,2.0,4.0,51,0.00,,,0.00,meteohub,2013-03-25 19:36:00,
2013-03-25 12:41:00,71.2,51.1,29.92,NW,315,2.0,4.0,49,0.00,,,0.00,meteohub,2013-03-25 19:41:00,
2013-03-25 12:46:00,71.8,51.6,29.92,North,0,2.0,4.0,49,0.00,,,0.00,meteohub,2013-03-25 19:46:00,
2013-03-25 12:51:00,72.3,51.4,29.92,South,180,2.0,4.0,48,0.00,,,0.00,meteohub,2013-03-25 19:51:00,
2013-03-25 12:56:00,72.5,51.1,29.91,SW,225,2.0,4.0,47,0.00,,,0.00,meteohub,2013-03-25 19:56:00,
2013-03-25 13:02:00,72.7,51.3,29.91,SE,135,2.0,4.0,47,0.00,,,0.00,meteohub,2013-03-25 20:02:00,
2013-03-25 13:07:00,72.7,51.3,29.91,East,90,2.0,2.0,47,0.00,,,0.00,meteohub,2013-03-25 20:07:00,
2013-03-25 13:12:00,72.9,51.4,29.91,South,180,3.0,4.0,47,0.00,,,0.00,meteohub,2013-03-25 20:12:00,
2013-03-25 13:17:00,73.0,51.1,29.91,NW,315,2.0,4.0,46,0.00,,,0.00,meteohub,2013-03-25 20:17:00,
2013-03-25 13:22:00,73.0,51.1,29.91,East,90,2.0,4.0,46,0.00,,,0.00,meteohub,2013-03-25 20:22:00,
2013-03-25 13:27:00,72.9,50.4,29.91,SE,135,2.0,4.0,45,0.00,,,0.00,meteohub,2013-03-25 20:27:00,
2013-03-25 13:33:00,72.7,49.5,29.91,SW,225,3.0,4.0,44,0.00,,,0.00,meteohub,2013-03-25 20:33:00,
2013-03-25 13:38:00,72.7,48.9,29.91,South,180,2.0,4.0,43,0.00,,,0.00,meteohub,2013-03-25 20:38:00,
2013-03-25 13:43:00,72.7,49.5,29.90,SE,135,2.0,4.0,44,0.00,,,0.00,meteohub,2013-03-25 20:43:00,
2013-03-25 13:48:00,72.7,49.5,29.90,South,180,2.0,3.0,44,0.00,,,0.00,meteohub,2013-03-25 20:48:00,
2013-03-25 13:54:00,73.0,49.8,29.90,SW,225,2.0,4.0,44,0.00,,,0.00,meteohub,2013-03-25 20:54:00,
2013-03-25 13:59:00,73.0,50.4,29.90,East,90,3.0,4.0,45,0.00,,,0.00,meteohub,2013-03-25 20:59:00,
2013-03-25 14:04:00,73.6,50.4,29.90,SE,135,3.0,4.0,44,0.00,,,0.00,meteohub,2013-03-25 21:04:00,
2013-03-25 14:09:00,73.4,50.2,29.89,South,180,2.0,4.0,44,0.00,,,0.00,meteohub,2013-03-25 21:09:00,
2013-03-25 14:14:00,73.8,50.5,29.89,SE,135,2.0,4.0,44,0.00,,,0.00,meteohub,2013-03-25 21:14:00,
2013-03-25 14:19:00,74.3,50.9,29.89,SW,225,3.0,4.0,44,0.00,,,0.00,meteohub,2013-03-25 21:19:00,
2013-03-25 14:25:00,73.9,50.7,29.89,SE,135,4.0,4.0,44,0.00,,,0.00,meteohub,2013-03-25 21:25:00,
2013-03-25 14:30:00,74.1,51.4,29.89,SE,135,2.0,4.0,45,0.00,,,0.00,meteohub,2013-03-25 21:30:00,
2013-03-25 14:35:00,73.9,50.7,29.88,ESE,113,4.0,4.0,44,0.00,,,0.00,meteohub,2013-03-25 21:35:00,
2013-03-25 14:41:00,73.0,49.8,29.88,SE,135,3.0,4.0,44,0.00,,,0.00,meteohub,2013-03-25 21:41:00,
2013-03-25 14:46:00,72.7,50.2,29.88,NE,45,2.0,4.0,45,0.00,,,0.00,meteohub,2013-03-25 21:46:00,
2013-03-25 14:51:00,72.0,48.9,29.88,West,270,2.0,4.0,44,0.00,,,0.00,meteohub,2013-03-25 21:51:00,
2013-03-25 14:56:00,72.0,49.5,29.88,SE,135,3.0,4.0,45,0.00,,,0.00,meteohub,2013-03-25 21:56:00,
2013-03-25 15:01:00,72.1,49.6,29.87,South,180,4.0,4.0,45,0.00,,,0.00,meteohub,2013-03-25 22:01:00,
2013-03-25 15:07:00,72.7,49.5,29.87,SW,225,4.0,4.0,44,0.00,,,0.00,meteohub,2013-03-25 22:07:00,
2013-03-25 15:12:00,73.4,48.9,29.87,West,270,3.0,4.0,42,0.00,,,0.00,meteohub,2013-03-25 22:12:00,
2013-03-25 15:17:00,72.9,48.4,29.87,South,180,4.0,5.0,42,0.00,,,0.00,meteohub,2013-03-25 22:17:00,
2013-03-25 15:22:00,72.1,45.9,29.87,SE,135,3.0,5.0,39,0.00,,,0.00,meteohub,2013-03-25 22:22:00,
2013-03-25 15:27:00,71.8,46.2,29.86,West,270,2.0,5.0,40,0.00,,,0.00,meteohub,2013-03-25 22:27:00,
2013-03-25 15:32:00,71.4,46.6,29.86,South,180,3.0,5.0,41,0.00,,,0.00,meteohub,2013-03-25 22:32:00,
2013-03-25 15:37:00,71.2,46.9,29.86,South,180,3.0,5.0,42,0.00,,,0.00,meteohub,2013-03-25 22:37:00,
2013-03-25 15:42:00,70.9,46.6,29.86,South,180,3.0,5.0,42,0.00,,,0.00,meteohub,2013-03-25 22:42:00,
2013-03-25 15:48:00,70.7,46.4,29.86,SW,225,2.0,4.0,42,0.00,,,0.00,meteohub,2013-03-25 22:48:00,
2013-03-25 15:53:00,70.5,46.4,29.86,South,180,3.0,8.0,42,0.00,,,0.00,meteohub,2013-03-25 22:53:00,
2013-03-25 15:58:00,70.2,46.6,29.86,West,270,3.0,8.0,43,0.00,,,0.00,meteohub,2013-03-25 22:58:00,
2013-03-25 16:03:00,70.0,47.1,29.85,NW,315,2.0,8.0,44,0.00,,,0.00,meteohub,2013-03-25 23:03:00,
2013-03-25 16:08:00,70.2,47.3,29.85,NE,45,2.0,6.0,44,0.00,,,0.00,meteohub,2013-03-25 23:08:00,
2013-03-25 16:13:00,70.7,47.1,29.86,South,180,4.0,6.0,43,0.00,,,0.00,meteohub,2013-03-25 23:13:00,
2013-03-25 16:19:00,70.3,46.2,29.86,South,180,2.0,4.0,42,0.00,,,0.00,meteohub,2013-03-25 23:19:00,
2013-03-25 16:24:00,69.6,46.2,29.86,North,0,3.0,4.0,43,0.00,,,0.00,meteohub,2013-03-25 23:24:00,
2013-03-25 16:29:00,68.7,45.9,29.86,SE,135,2.0,4.0,44,0.00,,,0.00,meteohub,2013-03-25 23:29:00,
2013-03-25 16:34:00,68.2,45.5,29.86,South,180,2.0,4.0,44,0.00,,,0.00,meteohub,2013-03-25 23:34:00,
2013-03-25 16:39:00,68.0,45.9,29.85,SW,225,2.0,4.0,45,0.00,,,0.00,meteohub,2013-03-25 23:39:00,
2013-03-25 16:44:00,67.8,45.7,29.86,SE,135,4.0,4.0,45,0.00,,,0.00,meteohub,2013-03-25 23:44:00,
2013-03-25 16:50:00,67.5,46.0,29.85,SW,225,2.0,3.0,46,0.00,,,0.00,meteohub,2013-03-25 23:50:00,
2013-03-25 16:55:00,66.9,46.0,29.86,South,180,2.0,4.0,47,0.00,,,0.00,meteohub,2013-03-25 23:55:00,
2013-03-25 17:00:00,67.1,46.2,29.86,SW,225,2.0,4.0,47,0.00,,,0.00,meteohub,2013-03-26 00:00:00,
2013-03-25 17:05:00,67.6,47.3,29.85,South,180,3.0,4.0,48,0.00,,,0.00,meteohub,2013-03-26 00:05:00,
2013-03-25 17:11:00,67.8,45.7,29.85,South,180,3.0,3.0,45,0.00,,,0.00,meteohub,2013-03-26 00:11:00,
2013-03-25 17:16:00,68.2,46.6,29.85,SW,225,3.0,3.0,46,0.00,,,0.00,meteohub,2013-03-26 00:16:00,
2013-03-25 17:21:00,68.5,46.4,29.85,South,180,2.0,3.0,45,0.00,,,0.00,meteohub,2013-03-26 00:21:00,
2013-03-25 17:27:00,68.7,45.9,29.85,South,180,2.0,3.0,44,0.00,,,0.00,meteohub,2013-03-26 00:27:00,
2013-03-25 17:32:00,68.7,45.3,29.85,West,270,3.0,3.0,43,0.00,,,0.00,meteohub,2013-03-26 00:32:00,
2013-03-25 17:37:00,68.7,45.9,29.85,SW,225,2.0,3.0,44,0.00,,,0.00,meteohub,2013-03-26 00:37:00,
2013-03-25 17:42:00,68.7,45.9,29.85,South,180,2.0,3.0,44,0.00,,,0.00,meteohub,2013-03-26 00:42:00,
2013-03-25 17:47:00,68.9,46.8,29.84,SW,225,2.0,3.0,45,0.00,,,0.00,meteohub,2013-03-26 00:47:00,
2013-03-25 17:53:00,68.9,46.0,29.84,NE,45,2.0,2.0,44,0.00,,,0.00,meteohub,2013-03-26 00:53:00,
2013-03-25 17:58:00,68.7,45.3,29.84,South,180,2.0,2.0,43,0.00,,,0.00,meteohub,2013-03-26 00:58:00,
2013-03-25 18:03:00,68.4,45.0,29.84,South,180,2.0,3.0,43,0.00,,,0.00,meteohub,2013-03-26 01:03:00,
2013-03-25 18:08:00,67.6,44.4,29.85,SE,135,2.0,3.0,43,0.00,,,0.00,meteohub,2013-03-26 01:08:00,
2013-03-25 18:14:00,66.9,43.7,29.85,East,90,2.0,3.0,43,0.00,,,0.00,meteohub,2013-03-26 01:14:00,
2013-03-25 18:19:00,65.8,43.3,29.85,South,180,1.0,3.0,44,0.00,,,0.00,meteohub,2013-03-26 01:19:00,
2013-03-25 18:24:00,64.9,43.7,29.85,SW,225,2.0,2.0,46,0.00,,,0.00,meteohub,2013-03-26 01:24:00,
2013-03-25 18:29:00,64.2,43.5,29.84,South,180,2.0,2.0,47,0.00,,,0.00,meteohub,2013-03-26 01:29:00,
2013-03-25 18:35:00,63.5,43.5,29.85,South,180,1.0,2.0,48,0.00,,,0.00,meteohub,2013-03-26 01:35:00,
2013-03-25 18:40:00,63.0,43.0,29.85,South,180,2.0,2.0,48,0.00,,,0.00,meteohub,2013-03-26 01:40:00,
2013-03-25 18:45:00,62.4,42.4,29.84,South,180,2.0,2.0,48,0.00,,,0.00,meteohub,2013-03-26 01:45:00,
2013-03-25 18:50:00,61.9,42.4,29.84,South,180,2.0,2.0,49,0.00,,,0.00,meteohub,2013-03-26 01:50:00,
2013-03-25 18:55:00,61.3,42.6,29.84,South,180,2.0,2.0,50,0.00,,,0.00,meteohub,2013-03-26 01:55:00,
2013-03-25 19:01:00,61.0,42.3,29.84,South,180,1.0,2.0,50,0.00,,,0.00,meteohub,2013-03-26 02:01:00,
2013-03-25 19:06:00,60.6,42.4,29.84,South,180,2.0,2.0,51,0.00,,,0.00,meteohub,2013-03-26 02:06:00,
2013-03-25 19:11:00,60.1,42.4,29.84,South,180,2.0,2.0,52,0.00,,,0.00,meteohub,2013-03-26 02:11:00,
2013-03-25 19:17:00,59.5,41.9,29.84,SW,225,2.0,2.0,52,0.00,,,0.00,meteohub,2013-03-26 02:17:00,
2013-03-25 19:22:00,59.2,42.1,29.84,SE,135,2.0,2.0,53,0.00,,,0.00,meteohub,2013-03-26 02:22:00,
2013-03-25 19:27:00,58.6,41.5,29.84,West,270,2.0,4.0,53,0.00,,,0.00,meteohub,2013-03-26 02:27:00,
2013-03-25 19:32:00,58.5,41.9,29.84,SW,225,2.0,4.0,54,0.00,,,0.00,meteohub,2013-03-26 02:32:00,
2013-03-25 19:37:00,57.9,40.8,29.84,SW,225,2.0,4.0,53,0.00,,,0.00,meteohub,2013-03-26 02:37:00,
2013-03-25 19:42:00,57.6,40.6,29.84,South,180,2.0,4.0,53,0.00,,,0.00,meteohub,2013-03-26 02:42:00,
2013-03-25 19:47:00,57.4,40.8,29.84,SE,135,2.0,2.0,54,0.00,,,0.00,meteohub,2013-03-26 02:47:00,
2013-03-25 19:53:00,57.0,41.0,29.84,South,180,2.0,2.0,55,0.00,,,0.00,meteohub,2013-03-26 02:53:00,
2013-03-25 19:58:00,56.7,41.2,29.85,West,270,2.0,2.0,56,0.00,,,0.00,meteohub,2013-03-26 02:58:00,
2013-03-25 20:03:00,56.5,41.0,29.85,SE,135,2.0,2.0,56,0.00,,,0.00,meteohub,2013-03-26 03:03:00,
2013-03-25 20:08:00,56.1,41.2,29.86,North,0,4.0,4.0,57,0.00,,,0.00,meteohub,2013-03-26 03:08:00,
2013-03-25 20:13:00,55.9,41.0,29.86,NW,315,1.0,2.0,57,0.00,,,0.00,meteohub,2013-03-26 03:13:00,
2013-03-25 20:19:00,55.8,40.8,29.86,West,270,3.0,4.0,57,0.00,,,0.00,meteohub,2013-03-26 03:19:00,
2013-03-25 20:24:00,55.6,40.6,29.85,South,180,4.0,4.0,57,0.00,,,0.00,meteohub,2013-03-26 03:24:00,
2013-03-25 20:29:00,55.6,40.1,29.85,South,180,2.0,4.0,56,0.00,,,0.00,meteohub,2013-03-26 03:29:00,
2013-03-25 20:34:00,55.4,40.5,29.86,NW,315,2.0,4.0,57,0.00,,,0.00,meteohub,2013-03-26 03:34:00,
2013-03-25 20:39:00,55.2,40.3,29.86,SW,225,2.0,4.0,57,0.00,,,0.00,meteohub,2013-03-26 03:39:00,
2013-03-25 20:44:00,55.2,40.6,29.86,West,270,3.0,3.0,58,0.00,,,0.00,meteohub,2013-03-26 03:44:00,
2013-03-25 20:50:00,55.0,40.5,29.86,South,180,4.0,4.0,58,0.00,,,0.00,meteohub,2013-03-26 03:50:00,
2013-03-25 20:55:00,54.5,40.5,29.87,SW,225,3.0,4.0,59,0.00,,,0.00,meteohub,2013-03-26 03:55:00,
2013-03-25 21:00:00,54.1,40.6,29.87,North,0,4.0,4.0,60,0.00,,,0.00,meteohub,2013-03-26 04:00:00,
2013-03-25 21:01:00,54.1,40.6,29.87,North,0,4.0,4.0,60,0.00,,,0.00,meteohub,2013-03-26 04:01:00,
2013-03-25 21:02:00,54.1,40.6,29.87,North,0,4.0,4.0,60,0.00,,,0.00,meteohub,2013-03-26 04:02:00,
2013-03-25 21:07:00,54.1,40.6,29.87,North,0,4.0,4.0,60,0.00,,,0.00,meteohub,2013-03-26 04:07:00,
2013-03-25 21:12:00,53.6,40.8,29.88,West,270,3.0,4.0,62,0.00,,,0.00,meteohub,2013-03-26 04:12:00,
2013-03-25 21:17:00,53.4,40.6,29.87,SW,225,3.0,4.0,62,0.00,,,0.00,meteohub,2013-03-26 04:17:00,
2013-03-25 21:22:00,53.2,40.6,29.87,South,180,2.0,4.0,62,0.00,,,0.00,meteohub,2013-03-26 04:22:00,
2013-03-25 21:27:00,53.1,40.8,29.87,South,180,2.0,4.0,63,0.00,,,0.00,meteohub,2013-03-26 04:27:00,
2013-03-25 21:32:00,52.7,40.8,29.87,East,90,1.0,3.0,64,0.00,,,0.00,meteohub,2013-03-26 04:32:00,
2013-03-25 21:38:00,52.5,40.6,29.87,South,180,2.0,3.0,64,0.00,,,0.00,meteohub,2013-03-26 04:38:00,
2013-03-25 21:43:00,52.5,41.2,29.88,SW,225,2.0,3.0,65,0.00,,,0.00,meteohub,2013-03-26 04:43:00,
2013-03-25 21:48:00,52.5,41.2,29.88,South,180,1.0,3.0,65,0.00,,,0.00,meteohub,2013-03-26 04:48:00,
2013-03-25 21:53:00,52.3,41.4,29.88,SE,135,2.0,3.0,66,0.00,,,0.00,meteohub,2013-03-26 04:53:00,
2013-03-25 21:58:00,52.2,41.5,29.87,South,180,2.0,2.0,67,0.00,,,0.00,meteohub,2013-03-26 04:58:00,
2013-03-25 22:04:00,52.2,41.5,29.87,South,180,1.0,2.0,67,0.00,,,0.00,meteohub,2013-03-26 05:04:00,
2013-03-25 22:09:00,52.0,41.7,29.87,SW,225,2.0,2.0,68,0.00,,,0.00,meteohub,2013-03-26 05:09:00,
2013-03-25 22:14:00,51.8,41.9,29.88,NW,315,4.0,4.0,69,0.00,,,0.00,meteohub,2013-03-26 05:14:00,
2013-03-25 22:20:00,51.8,41.9,29.88,SE,135,2.0,2.0,69,0.00,,,0.00,meteohub,2013-03-26 05:20:00,
2013-03-25 22:25:00,51.6,42.1,29.88,SE,135,1.0,4.0,70,0.00,,,0.00,meteohub,2013-03-26 05:25:00,
2013-03-25 22:30:00,51.6,42.1,29.88,South,180,4.0,4.0,70,0.00,,,0.00,meteohub,2013-03-26 05:30:00,
2013-03-25 22:36:00,51.6,42.4,29.88,South,180,2.0,4.0,71,0.00,,,0.00,meteohub,2013-03-26 05:36:00,
2013-03-25 22:41:00,51.6,42.4,29.88,West,270,2.0,4.0,71,0.00,,,0.00,meteohub,2013-03-26 05:41:00,
2013-03-25 22:46:00,51.6,42.4,29.87,East,90,2.0,4.0,71,0.00,,,0.00,meteohub,2013-03-26 05:46:00,
2013-03-25 22:51:00,51.6,42.4,29.87,ENE,68,2.0,3.0,71,0.00,,,0.00,meteohub,2013-03-26 05:51:00,
2013-03-25 22:57:00,51.6,42.4,29.87,South,180,2.0,4.0,71,0.00,,,0.00,meteohub,2013-03-26 05:57:00,
2013-03-25 23:02:00,51.8,42.6,29.88,South,180,4.0,4.0,71,0.00,,,0.00,meteohub,2013-03-26 06:02:00,
2013-03-25 23:07:00,51.8,42.6,29.88,South,180,4.0,4.0,71,0.00,,,0.00,meteohub,2013-03-26 06:07:00,
2013-03-25 23:12:00,51.6,43.0,29.88,SW,225,3.0,4.0,72,0.00,,,0.00,meteohub,2013-03-26 06:12:00,
2013-03-25 23:17:00,51.8,43.0,29.88,SE,135,3.0,4.0,72,0.00,,,0.00,meteohub,2013-03-26 06:17:00,
2013-03-25 23:22:00,51.8,43.0,29.88,SW,225,4.0,4.0,72,0.00,,,0.00,meteohub,2013-03-26 06:22:00,
2013-03-25 23:27:00,52.0,43.2,29.88,SW,225,4.0,5.0,72,0.00,,,0.00,meteohub,2013-03-26 06:27:00,
2013-03-25 23:33:00,52.0,43.2,29.88,South,180,2.0,5.0,72,0.00,,,0.00,meteohub,2013-03-26 06:33:00,
2013-03-25 23:38:00,52.0,43.2,29.88,South,180,3.0,5.0,72,0.00,,,0.00,meteohub,2013-03-26 06:38:00,
2013-03-25 23:43:00,52.0,43.2,29.88,South,180,4.0,4.0,72,0.00,,,0.00,meteohub,2013-03-26 06:43:00,
2013-03-25 23:48:00,52.0,43.2,29.88,SW,225,4.0,4.0,72,0.00,,,0.00,meteohub,2013-03-26 06:48:00,
2013-03-25 23:53:00,52.0,43.2,29.88,SW,225,4.0,4.0,72,0.00,,,0.00,meteohub,2013-03-26 06:53:00,
2013-03-25 23:59:00,52.0,43.2,29.88,SE,135,3.0,4.0,72,0.00,,,0.00,meteohub,2013-03-26 06:59:00,